User: anonymous   Login
Location: Dentlein
(49.1477°N, 10.4231°E)
Time: 20:00:47
(UTC+00:00)
Language:

Meteor 2-5 Rocket - Orbit

View from above orbital plane
View from above orbital plane
View from above satellite
View from above satellite

Ground track
Ground track

The orbit data is extracted from the following two-line orbital elements,

1 11608U 79095B   24207.14207309  .00000111  00000-0  58879-4 0  9991
2 11608  81.2116 212.4721 0055540  72.8066 287.9172 14.06373938294537
Epoch (UTC): 25 July 2024 03:24:35
Eccentricity: 0.0055540
inclination: 81.2116°
perigee height: 831 km
apogee height: 912 km
right ascension of ascending node: 212.4721°
argument of perigee: 72.8066°
revolutions per day: 14.06373938
mean anomaly at epoch: 287.9172°
orbit number at epoch: 29453

The dashed part of the orbit path shows where the satellite is in the earth's shadow,  

DLR